DKH8115 ZSLO-ZGKL

Flight info

Callsign DKH8115
Flight time N/A
Altitude 23600
Route PV H22 XEBUL H25 WYN G586 QP
Aircraft A20N/M-SDE2E3FGHIRWXY/LB1

Departure

Time 2026-04-27 07:47
Airport Liancheng Guanzhishan Airport (ZSLO)

Arrival

Time N/A
Airport Guilin Liangjiang International Airport (ZGKL)
Time Latitude Longitude Altitude Speed Heading
2026-04-27 07:42 25.68279 116.74960 1236 ft 12 kts 267°
2026-04-27 07:42 25.68217 116.74896 1235 ft 16 kts 202°
2026-04-27 07:42 25.68089 116.74837 1233 ft 23 kts 202°
2026-04-27 07:42 25.67932 116.74766 1231 ft 24 kts 202°
2026-04-27 07:43 25.67778 116.74696 1230 ft 23 kts 202°
2026-04-27 07:43 25.67628 116.74627 1230 ft 23 kts 203°
2026-04-27 07:43 25.67475 116.74557 1229 ft 24 kts 202°
2026-04-27 07:43 25.67314 116.74483 1228 ft 25 kts 202°
2026-04-27 07:44 25.67146 116.74407 1226 ft 26 kts 202°
2026-04-27 07:44 25.66980 116.74332 1227 ft 24 kts 204°
2026-04-27 07:44 25.66828 116.74261 1228 ft 22 kts 202°
2026-04-27 07:44 25.66730 116.74216 1230 ft 6 kts 202°
2026-04-27 07:45 25.66686 116.74200 1230 ft 6 kts 182°
2026-04-27 07:45 25.66670 116.74197 1230 ft 0 kts 238°
2026-04-27 07:45 25.66677 116.74194 1230 ft 2 kts
2026-04-27 07:45 25.66707 116.74206 1230 ft 6 kts 23°
2026-04-27 07:46 25.66810 116.74253 1228 ft 35 kts 22°
2026-04-27 07:46 25.67267 116.74463 1228 ft 104 kts 23°
2026-04-27 07:46 25.68133 116.74859 1235 ft 160 kts 23°
2026-04-27 07:46 25.69233 116.75359 1578 ft 175 kts 24°
2026-04-27 07:47 25.70350 116.75877 2144 ft 176 kts 24°
2026-04-27 07:47 25.71489 116.76403 2805 ft 177 kts 24°
2026-04-27 07:47 25.72650 116.76936 3282 ft 186 kts 24°
2026-04-27 07:47 25.73910 116.77518 3673 ft 203 kts 24°
2026-04-27 07:48 25.75265 116.78142 4072 ft 220 kts 24°
2026-04-27 07:48 25.76755 116.78825 4428 ft 242 kts 23°
2026-04-27 07:48 25.78322 116.79543 5246 ft 243 kts 23°
2026-04-27 07:48 25.79877 116.80256 6118 ft 243 kts 23°
2026-04-27 07:49 25.81423 116.80965 6917 ft 245 kts 22°
2026-04-27 07:49 25.83047 116.81668 7692 ft 249 kts 13°
2026-04-27 07:49 25.84744 116.81635 8412 ft 249 kts 336°
2026-04-27 07:49 25.86114 116.80548 9180 ft 244 kts 303°
2026-04-27 07:50 25.86747 116.78823 9890 ft 241 kts 272°
2026-04-27 07:50 25.86481 116.77033 10576 ft 240 kts 243°
2026-04-27 07:50 25.85615 116.75451 11291 ft 242 kts 238°
2026-04-27 07:50 25.84719 116.73857 12001 ft 245 kts 238°
2026-04-27 07:51 25.83832 116.72240 12762 ft 245 kts 239°
2026-04-27 07:51 25.82957 116.70627 13519 ft 246 kts 239°
2026-04-27 07:51 25.82064 116.68977 14257 ft 247 kts 239°
2026-04-27 07:51 25.81160 116.67336 14933 ft 250 kts 234°
2026-04-27 07:52 25.79907 116.65927 15349 ft 266 kts 216°
2026-04-27 07:52 25.78205 116.64973 15709 ft 284 kts 205°
2026-04-27 07:52 25.76302 116.64110 16042 ft 301 kts 205°
2026-04-27 07:52 25.74302 116.63207 16348 ft 318 kts 205°
2026-04-27 07:53 25.72204 116.62256 16645 ft 335 kts 205°
2026-04-27 07:53 25.69984 116.61246 16929 ft 351 kts 205°
2026-04-27 07:53 25.67678 116.60194 17196 ft 366 kts 205°
2026-04-27 07:53 25.65244 116.59086 17452 ft 381 kts 205°
2026-04-27 07:54 25.62742 116.57945 17689 ft 395 kts 205°
2026-04-27 07:54 25.60141 116.56759 17911 ft 408 kts 205°
2026-04-27 07:54 25.57484 116.55548 18112 ft 420 kts 205°
2026-04-27 07:54 25.54722 116.54290 18349 ft 430 kts 205°
2026-04-27 07:55 25.51959 116.53034 18762 ft 434 kts 205°
2026-04-27 07:55 25.49198 116.51633 19204 ft 435 kts 211°
2026-04-27 07:55 25.46627 116.49816 19613 ft 437 kts 219°
2026-04-27 07:55 25.44323 116.47628 20012 ft 438 kts 226°
2026-04-27 07:56 25.42225 116.45136 20415 ft 441 kts 230°
2026-04-27 07:56 25.40165 116.42582 20799 ft 444 kts 230°
2026-04-27 07:56 25.38087 116.39988 21197 ft 447 kts 230°
2026-04-27 07:56 25.36017 116.37410 21576 ft 449 kts 230°
2026-04-27 07:57 25.33983 116.34884 21914 ft 453 kts 230°
2026-04-27 07:57 25.32050 116.32484 22237 ft 455 kts 230°
2026-04-27 07:57 25.29935 116.29859 22582 ft 458 kts 230°
2026-04-27 07:57 25.28059 116.27505 22896 ft 460 kts 232°
2026-04-27 07:58 25.25946 116.24612 23252 ft 462 kts 234°
2026-04-27 07:58 25.23940 116.21724 23520 ft 464 kts 234°
2026-04-27 07:58 25.21953 116.18857 23548 ft 463 kts 234°
2026-04-27 07:58 25.19966 116.15994 23553 ft 463 kts 234°
2026-04-27 07:59 25.17985 116.13137 23550 ft 464 kts 234°
2026-04-27 07:59 25.14000 116.07404 23564 ft 464 kts 234°
2026-04-27 07:59 25.12022 116.04560 23563 ft 465 kts 234°
2026-04-27 08:00 25.10039 116.01713 23563 ft 465 kts 234°
2026-04-27 08:00 25.08145 115.98992 23558 ft 465 kts 234°
2026-04-27 08:00 25.06255 115.96277 23552 ft 464 kts 234°
2026-04-27 08:00 25.04244 115.93389 23545 ft 464 kts 234°
2026-04-27 08:01 25.02265 115.90551 23541 ft 464 kts 234°
2026-04-27 08:01 25.00287 115.87716 23535 ft 464 kts 234°
2026-04-27 08:01 24.98306 115.84878 23533 ft 464 kts 234°
2026-04-27 08:01 24.96327 115.82046 23538 ft 464 kts 234°
2026-04-27 08:02 24.94340 115.79205 23538 ft 463 kts 234°
2026-04-27 08:02 24.92374 115.76395 23541 ft 463 kts 234°
2026-04-27 08:02 24.90404 115.73581 23544 ft 463 kts 234°
2026-04-27 08:02 24.89206 115.71873 23542 ft 464 kts 234°
2026-04-27 08:03 24.87231 115.69075 23547 ft 463 kts 234°
2026-04-27 08:03 24.85857 115.67130 23549 ft 463 kts 234°
2026-04-27 08:03 24.83212 115.63373 23550 ft 463 kts 234°
2026-04-27 08:04 24.81225 115.60548 23546 ft 464 kts 234°
2026-04-27 08:04 24.79252 115.57745 23545 ft 464 kts 234°
2026-04-27 08:04 24.77264 115.54924 23541 ft 464 kts 234°
2026-04-27 08:04 24.75272 115.52095 23535 ft 465 kts 234°
2026-04-27 08:05 24.73286 115.49274 23527 ft 464 kts 234°
2026-04-27 08:05 24.71316 115.46476 23523 ft 464 kts 234°
2026-04-27 08:05 24.69323 115.43650 23519 ft 464 kts 234°
2026-04-27 08:05 24.67351 115.40857 23518 ft 464 kts 234°
2026-04-27 08:06 24.65392 115.38058 23518 ft 464 kts 234°
2026-04-27 08:06 24.63420 115.35226 23517 ft 464 kts 234°
2026-04-27 08:06 24.62167 115.33421 23519 ft 464 kts 234°
2026-04-27 08:06 24.60519 115.31038 23517 ft 464 kts 234°
2026-04-27 08:07 24.58556 115.28202 23511 ft 465 kts 234°
2026-04-27 08:07 24.56570 115.25340 23508 ft 465 kts 234°
2026-04-27 08:07 24.55399 115.23655 23508 ft 465 kts 234°
2026-04-27 08:07 24.55136 115.23278 23508 ft 465 kts 234°